[[{"header":{"parameterUnit":"m.s-1","parameterCategory":1,"la1":30.2992,"la2":30.254,"lo1":-89.0895,"lo2":-89.0443,"dy":0.0025,"dx":0.0025,"nx":19,"ny":19,"refTime":"2026-03-25T21:00:00:Z","depth":0,"parameterNumber":2,"parameterNumberName":"U-component_of_WINDS"},"data":[0,0,0,-2.5676,-2.568,-2.5849,-2.585,-2.607,-2.6072,0,0,0,0,0,0,0,0,0,0,0,-2.5625,-2.5626,-2.5676,-2.568,-2.5849,-2.585,-2.607,-2.6072,0,0,0,0,0,0,0,0,0,0,0,-2.5624,-2.5626,-2.5628,-2.5681,-2.5849,-2.585,-2.6069,-2.5941,0,0,0,0,0,0,0,0,0,0,-2.5776,-2.5726,-2.5625,-2.5628,-2.5682,-2.5849,-2.585,-2.5935,-2.5949,-2.5994,0,-2.603,0,-2.6054,-2.6087,-2.6087,0,0,0,-2.5682,-2.5715,-2.5761,-2.5628,-2.5683,-2.5849,-2.5774,-2.5943,-2.5959,-2.6013,-2.6033,-2.6041,-2.6058,-2.6088,-2.6089,-2.6333,-2.6334,0,0,-2.5673,-2.5655,-2.575,-2.5771,-2.5742,-2.5768,-2.5779,-2.5953,-2.5975,-2.6034,-2.6046,-2.6061,-2.6089,-2.6091,-2.6332,-2.6333,0,0,0,-2.5645,-2.5649,-2.5691,-2.5762,-2.5792,-2.5773,-2.5785,-2.5967,-2.5982,-2.6049,-2.6064,-2.6091,-2.6093,-2.6331,-2.6332,-2.6365,0,0,0,-2.5639,-2.5632,-2.5687,-2.5678,-2.5789,-2.5881,-2.5796,-2.597,-2.5991,-2.6063,-2.6091,-2.6096,-2.633,-2.6332,-2.6362,-2.6384,0,0,0,-2.5614,-2.5629,-2.5653,-2.5676,-2.5748,-2.5879,-2.5904,-2.5975,-2.6,-2.6088,-2.6096,-2.6329,-2.6331,-2.6359,-2.6379,-2.6443,0,0,0,-2.5583,-2.5681,-2.5653,-2.5768,-2.5747,-2.5897,-2.5903,-2.6017,-2.6096,-2.6092,-2.633,-2.6332,-2.6358,-2.6376,-2.644,-2.6493,-2.6513,0,0,-2.5697,-2.5694,-2.5763,-2.5743,-2.5893,-2.5873,-2.603,-2.6121,-2.6147,-2.6271,-2.6277,-2.6363,-2.6379,-2.6442,-2.6635,-2.665,0,0,0,-2.5793,-2.5843,-2.5887,-2.5959,-2.603,-2.6093,-2.6161,-2.6195,-2.6301,-2.6205,-2.6404,-2.6414,-2.6452,-2.6479,-2.6492,-2.6526,-2.6344,-2.6343,-2.6343,-2.5927,-2.5954,-2.6071,-2.6119,-2.619,-2.626,-2.6322,-2.638,-2.6388,-2.6435,-2.6471,-2.6584,-2.6614,-2.6624,-2.666,-2.6502,-2.6502,-2.6502,-2.6502,-2.6095,-2.617,-2.6177,-2.6293,-2.6322,-2.6422,-2.6495,-2.6497,-2.6596,-2.6558,-2.6593,-2.655,-2.6641,-2.6673,-2.6505,-2.6505,-2.6504,-2.6504,-2.6504,-2.6185,-2.6226,-2.6264,-2.6374,-2.6456,-2.6503,-2.6597,-2.6622,-2.6646,-2.668,-2.6722,-2.6722,-2.6724,-2.6698,-2.6699,-2.6699,-2.67,-2.67,-2.67,-2.6263,-2.6306,-2.638,-2.6464,-2.6515,-2.6586,-2.6659,-2.6711,-2.6776,-2.6786,-2.6787,-2.679,-2.6644,-2.6607,-2.6706,-2.6705,-2.6704,-2.6704,-2.6703,-2.6422,-2.639,-2.6505,-2.6556,-2.6658,-2.6739,-2.6769,-2.6874,-2.6921,-2.6967,-2.6965,-2.6852,-2.6852,-2.6842,-2.6811,-2.6957,-2.6957,-2.6957,-2.6957,-2.6498,-2.65,-2.6623,-2.6703,-2.6785,-2.6824,-2.6957,-2.7017,-2.7074,-2.7106,-2.7089,-2.705,-2.7038,-2.7045,-2.703,-2.7002,-2.7194,-2.7194,-2.7194,-2.6598,-2.6609,-2.6715,-2.6767,-2.6849,-2.692,-2.7046,-2.7141,-2.72,-2.7204,-2.7131,-2.7121,-2.706,-2.7038,-2.7039,-2.7015,-2.6963,0,0]},{"header":{"parameterUnit":"m.s-1","parameterCategory":1,"la1":30.2992,"la2":30.254,"lo1":-89.0895,"lo2":-89.0443,"dy":0.0025,"dx":0.0025,"nx":19,"ny":19,"refTime":"2026-03-25T21:00:00:Z","depth":0,"parameterNumber":3,"parameterNumberName":"V-component_of_WINDS"},"data":[0,0,0,2.1994,2.1994,2.1982,2.1982,2.1977,2.1977,0,0,0,0,0,0,0,0,0,0,0,2.2002,2.2003,2.1994,2.1994,2.1982,2.1982,2.1977,2.1977,0,0,0,0,0,0,0,0,0,0,0,2.2002,2.2002,2.2003,2.1994,2.1982,2.1982,2.1977,2.1982,0,0,0,0,0,0,0,0,0,0,2.1991,2.2005,2.2002,2.2003,2.1994,2.1982,2.1982,2.1982,2.1982,2.1986,0,2.1991,0,2.1984,2.1977,2.1977,0,0,0,2.1989,2.2005,2.1997,2.2003,2.1993,2.1983,2.1986,2.1982,2.1981,2.1985,2.1991,2.199,2.1984,2.1977,2.1977,2.2015,2.2016,0,0,2.199,2.2003,2.1998,2.1997,2.2,2.1987,2.1986,2.1981,2.1988,2.199,2.199,2.1984,2.1977,2.1977,2.2015,2.2015,0,0,0,2.1995,2.2004,2.1996,2.1998,2.1995,2.1986,2.1986,2.1988,2.1985,2.199,2.1984,2.1977,2.1977,2.2014,2.2015,2.2047,0,0,0,2.1995,2.2006,2.1996,2.2004,2.1995,2.1992,2.1993,2.1985,2.1984,2.1984,2.1977,2.1977,2.2014,2.2015,2.2045,2.206,0,0,0,2.2001,2.2007,2.2007,2.2005,2.2001,2.1991,2.1987,2.1984,2.198,2.1977,2.1977,2.2014,2.2015,2.2044,2.2057,2.2075,0,0,0,2.2012,2.2035,2.2008,2.2032,2.2001,2.2011,2.1987,2.1994,2.1995,2.1977,2.2014,2.2015,2.2043,2.2056,2.2073,2.2092,2.2101,0,0,2.2049,2.204,2.2053,2.2029,2.2047,2.2012,2.2035,2.2023,2.201,2.2014,2.2015,2.2046,2.2057,2.2074,2.2146,2.2153,0,0,0,2.2069,2.2079,2.2081,2.2083,2.2075,2.2069,2.2052,2.2048,2.2051,2.2015,2.2056,2.2062,2.2072,2.208,2.2087,2.2094,2.2019,2.2019,2.2019,2.2141,2.2124,2.2145,2.2127,2.2129,2.2112,2.2112,2.2103,2.2085,2.2095,2.2096,2.2142,2.2152,2.2157,2.2165,2.2104,2.2104,2.2105,2.2105,2.2194,2.2205,2.2181,2.2193,2.2175,2.2184,2.2169,2.2156,2.2162,2.2139,2.2147,2.2124,2.2165,2.2172,2.2107,2.2107,2.2106,2.2106,2.2106,2.2239,2.2241,2.2236,2.2238,2.2241,2.2222,2.223,2.2213,2.2197,2.2204,2.2204,2.2204,2.2202,2.2206,2.2206,2.2206,2.2206,2.2206,2.2206,2.2288,2.2281,2.229,2.2284,2.2283,2.2281,2.2265,2.2264,2.2258,2.2245,2.2245,2.2227,2.2172,2.216,2.2209,2.2208,2.2208,2.2208,2.2207,2.2349,2.2332,2.2346,2.2346,2.2338,2.2343,2.2321,2.2321,2.2318,2.2322,2.2302,2.2265,2.2255,2.225,2.2239,2.2305,2.2305,2.2305,2.2305,2.2387,2.2381,2.2391,2.2392,2.2391,2.2373,2.2389,2.2377,2.2362,2.2359,2.2347,2.2331,2.2327,2.2319,2.2313,2.2302,2.2384,2.2384,2.2384,2.2424,2.2417,2.2434,2.2419,2.2412,2.2407,2.2422,2.2424,2.2403,2.2387,2.2357,2.2353,2.2328,2.232,2.2303,2.2293,2.2274,0,0]}]]